Location: Kolin
(50.0330°N, 15.2000°E)
Time: 17:18:12
(UTC+01:00)

ISS - Pass Details

Date: 25 November 2019
Orbit: 411 x 421 km, 51.6° (Epoch: 14 December)

Event Time Altitude Azimuth Distance (km) Brightness Sun altitude
Rises 17:36:26 0° 223° (SW) 2,347 1.1 -14.3°
Reaches altitude 10° 17:38:38 10° 213° (SSW) 1,489 -0.3 -14.6°
Maximum altitude 17:41:40 33° 148° (SSE) 734 -2.7 -15.1°
Enters shadow 17:42:36 27° 114° (ESE) 837 -2.7 -15.2°
